Wind_Speed
87 87 75 73 72 70 70 65 62 73 71 63 62 57 60 58 58 54 55 51 57 62 66 67 73 77 59 57 53 48 46 43 39 35 34 34 33 29 27 28 28 28 34 36
87 75 78 79 80 77 73 65 61 66 69 58 57 55 56 53 50 45 48 52 57 62 67 75 75 61 56 56 47 44 41 36 33 29 33 31 29 29 26 26 29 32 35 36
78 70 83 79 80 74 71 65 63 65 64 53 56 55 55 49 41 46 50 53 59 63 69 71 65 57 58 48 43 41 37 30 28 29 30 25 25 25 22 24 25 22 30 32
63 63 63 66 69 70 66 66 69 65 65 56 55 53 48 43 44 50 52 53 58 61 63 64 56 55 47 44 40 35 28 27 28 29 26 21 22 19 20 15 22 30 36 29
51 64 57 56 59 63 60 69 69 67 62 57 55 44 40 40 49 50 49 52 54 59 56 54 46 47 46 39 34 27 28 27 28 27 21 17 14 13 17 23 29 33 33 25
64 63 63 52 56 64 64 68 65 59 51 42 52 40 39 42 45 46 46 47 50 51 48 44 44 44 37 34 28 26 27 27 25 21 14 11 9 15 23 25 31 34 27 22
57 53 48 44 43 40 41 39 40 35 34 41 44 34 39 39 45 46 45 44 40 43 36 43 53 38 31 27 24 24 25 24 22 14 9 8 9 16 22 25 32 29 20 21
57 58 49 44 40 40 40 38 35 37 39 49 34 32 37 42 38 46 42 40 35 32 34 31 35 31 27 21 20 22 22 21 17 11 8 6 9 19 24 25 32 24 19 18
58 55 60 61 56 56 47 38 42 44 45 37 29 39 45 41 40 46 36 30 31 29 35 30 29 26 22 17 18 21 20 18 15 11 7 4 10 20 22 25 32 20 19 16
67 65 69 71 67 58 51 49 49 38 33 31 36 40 38 30 36 35 27 28 26 29 27 25 24 19 15 14 16 19 19 17 14 8 4 4 12 18 23 29 23 20 20 18
69 64 70 68 55 58 56 45 41 38 43 45 43 41 35 30 36 25 24 24 22 25 20 21 17 13 13 12 14 18 19 16 14 7 4 3 10 19 23 30 21 21 22 20
73 70 68 65 62 64 58 55 52 51 46 45 45 38 30 34 33 25 20 18 19 19 13 18 14 13 12 10 13 17 18 15 14 7 6 5 10 15 23 30 19 20 24 22
79 70 70 62 64 59 53 54 51 50 46 42 42 37 32 29 30 23 17 16 16 12 11 15 18 12 12 9 13 14 16 16 13 6 11 6 6 13 22 31 23 17 20 23
79 72 66 53 47 58 57 50 49 50 47 42 42 43 35 31 28 25 19 16 11 8 9 14 18 11 10 9 13 14 16 16 13 4 13 9 2 9 17 26 30 16 19 19
80 73 70 62 58 52 51 56 57 52 43 42 39 31 33 32 29 26 20 14 8 5 9 12 17 16 11 9 13 15 15 16 13 8 10 8 6 1 9 18 28 25 15 16
83 78 72 67 62 55 47 44 44 47 49 44 42 34 32 32 29 26 19 13 7 3 8 12 13 19 12 9 11 15 15 15 13 10 2 10 7 5 4 10 17 25 22 15
87 82 76 69 63 60 53 35 28 33 33 33 33 36 36 34 31 25 20 15 7 2 7 10 14 15 16 10 9 9 11 13 14 10 5 5 8 9 11 8 9 12 20 22
90 86 77 73 69 63 40 39 32 31 35 33 35 34 39 35 32 24 22 18 7 1 5 9 14 15 16 14 11 10 8 11 12 13 9 3 9 7 8 7 8 11 13 19
91 85 78 75 71 55 49 49 41 36 36 38 39 41 45 39 32 26 26 21 9 1 3 7 10 14 17 18 14 11 9 9 12 12 13 12 2 10 7 9 10 12 10 10
92 87 83 79 74 60 59 55 48 46 46 46 43 43 47 41 34 33 27 19 13 5 2 5 8 10 15 17 19 12 11 8 8 10 11 11 8 4 9 8 9 7 9 10
95 90 84 83 78 69 65 62 59 53 48 44 43 41 43 42 44 38 25 20 17 10 5 4 5 8 12 15 16 18 11 12 7 8 8 9 9 7 3 5 7 10 11 12
99 94 90 87 84 75 71 67 65 57 54 47 42 42 39 45 45 34 29 23 22 13 7 6 4 7 9 12 14 16 16 11 8 6 8 8 7 7 7 5 3 2 2 1
99 99 94 92 86 78 74 71 63 59 56 50 45 44 44 42 42 39 34 27 26 17 8 6 9 5 8 9 11 14 15 13 10 6 5 6 8 7 5 6 6 6 3 3
99 99 97 91 88 82 78 74 68 63 58 55 52 47 45 44 44 41 35 30 28 24 15 7 10 11 8 9 9 11 12 14 12 8 5 4 4 6 8 8 6 5 6 6
97 97 97 95 91 87 81 78 73 67 62 59 54 50 46 46 44 44 40 34 29 27 21 14 12 13 12 11 9 11 10 12 13 12 8 5 5 3 4 7 7 6 6 7
95 97 98 97 94 88 83 77 73 70 66 63 58 55 49 47 46 45 43 40 35 31 27 18 14 15 15 14 13 11 11 10 10 10 11 9 5 6 7 6 3 5 6 9
Wind_Direction
251 252 255 252 250 251 257 261 260 259 264 264 268 271 277 282 286 288 291 290 296 300 303 307 310 314 310 314 317 314 311 310 311 316 311 313 315 315 313 318 316 307 302 304
252 254 250 250 252 255 256 260 259 261 262 263 267 270 276 281 284 285 286 291 299 302 305 308 312 312 312 318 314 311 312 315 316 317 313 316 312 317 325 319 315 314 313 307
252 250 253 252 253 254 257 256 254 254 260 261 266 271 278 279 281 279 284 294 298 303 307 310 310 309 314 314 313 311 314 320 320 315 316 313 312 321 331 324 325 328 322 316
246 248 250 252 252 250 249 249 251 254 260 262 268 272 274 276 276 279 283 293 299 304 307 312 308 311 316 313 310 315 320 323 321 319 317 312 314 338 332 341 336 335 329 320
240 245 243 242 240 242 240 246 250 256 263 265 267 263 266 273 274 279 285 291 299 306 315 308 310 309 314 309 313 319 327 326 322 319 318 310 330 346 337 332 338 333 327 323
235 243 247 240 238 242 239 249 252 256 258 260 260 257 264 266 273 279 286 298 307 309 307 306 301 312 309 314 320 329 332 326 322 323 315 320 342 349 337 340 339 334 330 329
236 241 244 244 242 239 244 242 243 243 243 244 257 254 261 268 276 281 292 304 302 304 303 297 297 306 315 321 323 328 332 329 328 325 315 339 352 337 332 346 346 336 342 347
232 230 224 239 244 241 235 230 221 226 232 244 250 257 266 271 277 285 300 303 294 294 298 303 304 310 318 323 331 330 334 334 332 324 327 339 335 329 328 346 354 345 355 358
232 226 225 220 222 230 235 231 233 232 237 247 254 259 263 268 282 285 298 286 285 290 291 294 304 313 317 322 339 334 336 341 336 330 344 13 345 336 343 349 351 358 14 21
222 220 219 221 222 223 234 233 240 238 243 250 250 257 267 283 288 295 284 268 276 290 297 303 309 315 317 336 339 340 341 347 344 344 21 38 14 349 351 1 2 28 26 39
224 224 226 226 224 223 228 230 236 240 248 247 249 258 270 283 290 281 256 265 280 291 303 320 317 327 327 342 344 346 345 350 354 1 108 102 358 1 2 11 30 37 39 49
223 222 228 226 224 227 227 226 226 230 233 243 249 266 284 282 276 259 247 267 277 290 332 330 335 340 329 347 349 349 345 354 354 349 168 247 10 12 10 21 33 38 43 61
221 222 225 225 230 238 230 227 233 237 243 253 261 269 271 256 252 237 240 257 271 292 346 338 357 335 336 358 12 358 353 358 355 355 171 183 52 30 27 24 33 38 46 58
220 220 227 226 231 232 233 232 237 240 244 256 265 267 256 229 230 228 229 244 268 307 350 355 7 356 357 17 23 14 5 3 360 10 181 218 204 46 34 26 33 49 53 59
218 216 221 218 219 224 227 231 236 241 244 256 244 244 219 215 217 223 218 228 250 317 357 358 17 13 19 32 43 28 11 13 14 5 189 207 207 111 25 27 31 37 41 60
218 217 218 221 220 218 221 227 233 238 246 248 247 225 210 209 214 214 206 212 230 341 5 5 14 22 24 32 57 43 19 14 27 12 283 216 213 238 305 3 39 39 28 35
218 216 216 219 219 220 219 216 223 230 230 234 229 207 205 205 211 211 204 205 216 337 8 5 16 19 24 33 28 46 34 22 24 33 352 238 225 245 283 318 8 39 37 34
218 218 216 220 221 224 206 211 211 220 218 216 220 209 206 205 209 211 210 205 205 30 5 1 19 16 19 33 39 18 26 31 26 34 27 325 237 245 272 298 322 354 22 33
218 219 217 218 225 213 209 211 203 207 217 217 210 202 203 208 207 209 215 207 185 228 2 2 19 19 12 22 41 36 20 23 32 28 32 31 223 228 262 269 302 319 347 18
214 214 215 217 222 212 210 212 205 205 212 214 213 202 199 205 206 211 213 210 186 195 291 352 5 19 12 18 29 39 26 5 34 28 35 37 30 286 246 263 285 310 329 341
212 213 212 216 219 213 208 209 208 204 210 214 218 208 198 205 204 213 208 218 209 175 234 297 1 2 11 12 20 32 25 15 14 37 27 30 30 22 10 262 262 281 299 316
209 208 210 214 217 211 209 209 210 206 206 206 215 220 202 207 213 212 215 220 227 198 204 268 334 349 353 6 9 23 28 22 2 29 36 25 29 23 17 1 334 288 302 240
208 210 210 213 215 213 211 211 210 209 209 204 208 216 216 211 215 212 219 221 234 222 203 254 290 327 322 357 356 11 18 23 19 359 30 33 31 21 10 13 352 334 349 139
206 207 211 214 214 212 210 211 210 209 212 212 207 211 217 215 211 218 220 224 228 240 219 218 269 292 297 322 347 347 6 10 17 19 350 349 20 42 38 15 347 339 328 317
205 204 208 213 214 213 211 213 209 208 209 214 215 212 213 217 216 213 222 220 229 238 241 226 242 271 287 301 320 331 343 2 4 18 15 354 328 354 48 38 11 350 302 280
202 205 206 211 215 214 213 214 215 211 209 212 214 215 217 214 215 216 217 223 230 237 244 236 256 269 279 288 295 310 322 345 348 3 17 23 348 309 312 303 330 347 334 315
Height
10688 10693 10722 10724 10721 10729 10734 10745 10751 10745 10742 10759 10757 10760 10748 10749 10747 10743 10739 10736 10730 10727 10723 10715 10709 10701 10691 10684 10675 10665 10656 10650 10642 10636 10630 10625 10620 10616 10612 10608 10606 10604 10600 10594
10673 10700 10694 10697 10704 10718 10725 10734 10736 10728 10727 10749 10747 10747 10743 10741 10738 10735 10732 10728 10723 10718 10712 10707 10699 10692 10684 10676 10666 10657 10650 10644 10636 10631 10626 10621 10616 10613 10609 10606 10604 10600 10595 10587
10662 10667 10673 10687 10695 10709 10716 10721 10715 10713 10722 10739 10733 10736 10736 10734 10731 10728 10725 10722 10717 10711 10705 10698 10691 10683 10676 10668 10659 10652 10645 10638 10632 10627 10622 10617 10614 10611 10607 10604 10601 10598 10590 10581
10645 10650 10660 10671 10683 10691 10699 10698 10694 10705 10714 10724 10729 10725 10725 10725 10725 10721 10719 10716 10710 10705 10700 10690 10683 10675 10668 10660 10653 10647 10640 10633 10628 10623 10618 10615 10612 10608 10606 10603 10599 10592 10584 10576
10645 10633 10643 10655 10661 10668 10674 10676 10686 10696 10708 10713 10716 10713 10716 10718 10713 10712 10712 10712 10705 10698 10692 10684 10676 10670 10663 10655 10649 10642 10636 10630 10624 10619 10616 10614 10611 10609 10607 10603 10597 10589 10579 10571
10620 10624 10634 10644 10644 10653 10653 10672 10681 10692 10697 10701 10697 10707 10709 10709 10705 10705 10706 10703 10696 10689 10685 10680 10673 10666 10658 10650 10643 10637 10632 10627 10622 10617 10615 10612 10611 10609 10606 10601 10595 10584 10575 10567
10617 10624 10628 10632 10640 10648 10652 10663 10674 10681 10686 10684 10692 10699 10699 10701 10698 10698 10699 10696 10689 10684 10680 10675 10667 10661 10653 10646 10640 10635 10629 10624 10619 10616 10614 10612 10612 10610 10606 10601 10593 10581 10572 10565
10603 10610 10619 10627 10632 10637 10643 10651 10665 10669 10674 10670 10689 10694 10693 10693 10690 10691 10692 10689 10685 10680 10677 10672 10664 10655 10649 10643 10638 10632 10627 10622 10618 10615 10613 10613 10613 10610 10606 10600 10591 10579 10572 10565
10587 10600 10603 10611 10617 10622 10636 10650 10651 10657 10662 10673 10683 10683 10684 10684 10683 10687 10687 10683 10681 10678 10673 10668 10659 10652 10646 10640 10635 10630 10626 10621 10616 10614 10613 10615 10614 10611 10606 10599 10589 10580 10573 10567
10564 10572 10578 10584 10596 10614 10629 10632 10638 10654 10663 10671 10673 10673 10676 10675 10677 10681 10681 10678 10677 10673 10668 10662 10655 10648 10642 10637 10633 10629 10625 10620 10616 10614 10615 10616 10616 10612 10606 10598 10588 10582 10577 10571
10555 10568 10571 10580 10608 10611 10618 10633 10642 10651 10658 10661 10665 10665 10670 10670 10670 10674 10676 10674 10673 10668 10664 10657 10651 10645 10638 10634 10630 10627 10623 10618 10615 10614 10615 10617 10617 10614 10608 10599 10591 10588 10583 10578
10541 10554 10563 10584 10592 10595 10609 10618 10628 10638 10645 10653 10659 10662 10664 10663 10664 10669 10670 10670 10669 10665 10659 10655 10647 10641 10637 10633 10628 10624 10621 10617 10615 10615 10616 10617 10618 10616 10611 10603 10596 10593 10590 10586
10526 10549 10553 10571 10582 10593 10612 10624 10631 10636 10642 10646 10649 10654 10654 10656 10659 10664 10667 10667 10665 10662 10656 10653 10645 10640 10636 10631 10626 10624 10620 10616 10614 10614 10616 10618 10619 10618 10614 10608 10601 10599 10597 10594
10517 10539 10551 10576 10588 10593 10606 10617 10623 10628 10637 10636 10639 10645 10646 10650 10655 10659 10664 10663 10662 10659 10655 10651 10644 10638 10634 10630 10626 10623 10620 10616 10615 10615 10616 10618 10620 10620 10617 10613 10606 10604 10604 10602
10511 10531 10539 10555 10565 10576 10589 10600 10609 10618 10622 10631 10623 10637 10639 10643 10650 10654 10659 10659 10658 10657 10653 10649 10644 10637 10633 10629 10626 10623 10621 10618 10616 10615 10616 10618 10621 10621 10620 10618 10612 10609 10608 10608
10503 10517 10528 10542 10555 10568 10579 10589 10600 10608 10612 10617 10621 10629 10634 10639 10645 10649 10653 10654 10655 10654 10651 10648 10644 10638 10633 10630 10625 10623 10622 10620 10617 10615 10616 10618 10621 10622 10623 10622 10620 10615 10612 10612
10488 10503 10520 10534 10546 10556 10567 10587 10596 10600 10604 10611 10619 10624 10629 10634 10639 10643 10648 10651 10652 10651 10648 10647 10643 10639 10635 10630 10626 10623 10621 10620 10618 10615 10615 10617 10620 10622 10622 10623 10624 10623 10620 10618
10475 10491 10512 10521 10531 10543 10577 10577 10586 10593 10597 10603 10609 10619 10624 10629 10633 10638 10642 10646 10647 10647 10647 10645 10642 10639 10635 10631 10626 10624 10622 10620 10619 10617 10615 10616 10618 10621 10623 10623 10624 10625 10625 10623
10463 10483 10504 10509 10521 10552 10559 10560 10571 10582 10590 10593 10598 10608 10615 10622 10628 10632 10636 10641 10642 10644 10644 10643 10641 10639 10636 10632 10626 10625 10623 10621 10619 10618 10616 10615 10617 10619 10621 10623 10625 10625 10626 10627
10448 10467 10486 10497 10509 10536 10542 10553 10563 10571 10576 10581 10589 10600 10610 10617 10624 10623 10630 10635 10639 10641 10642 10641 10640 10639 10636 10633 10628 10626 10624 10622 10620 10619 10619 10618 10618 10619 10620 10622 10624 10626 10626 10628
10435 10453 10471 10481 10493 10518 10529 10540 10547 10559 10573 10580 10587 10595 10609 10615 10614 10619 10628 10631 10636 10639 10639 10639 10638 10637 10636 10634 10631 10628 10625 10623 10622 10621 10620 10620 10620 10620 10620 10621 10623 10625 10626 10627
10414 10435 10449 10466 10478 10500 10515 10526 10534 10554 10563 10577 10585 10592 10605 10610 10612 10622 10625 10630 10632 10637 10636 10636 10636 10635 10636 10635 10632 10630 10627 10625 10624 10622 10622 10622 10622 10622 10621 10621 10622 10623 10626 10628
10402 10420 10435 10450 10469 10493 10505 10518 10536 10546 10558 10570 10579 10586 10595 10604 10612 10616 10619 10625 10627 10633 10635 10634 10633 10635 10634 10634 10632 10631 10629 10627 10625 10624 10623 10623 10623 10623 10623 10623 10623 10624 10625 10627
10386 10407 10424 10442 10458 10476 10492 10508 10525 10539 10551 10561 10570 10579 10587 10595 10604 10611 10617 10620 10624 10626 10632 10632 10631 10632 10633 10632 10632 10631 10629 10628 10627 10625 10624 10624 10624 10624 10623 10623 10624 10625 10626 10626
10373 10399 10413 10428 10445 10461 10478 10495 10513 10529 10542 10551 10562 10572 10579 10587 10595 10603 10612 10617 10619 10621 10625 10629 10629 10630 10630 10630 10630 10630 10629 10627 10626 10625 10624 10624 10624 10624 10624 10623 10623 10624 10625 10626
10369 10384 10401 10417 10429 10452 10469 10487 10503 10520 10531 10541 10552 10562 10571 10578 10587 10594 10600 10608 10613 10616 10619 10624 10626 10626 10627 10626 10626 10627 10627 10626 10625 10625 10624 10623 10622 10622 10622 10622 10623 10622 10622 10623